Location: Lansingburgh
(42.7845°N, 73.6696°W)
Time: 01:36:29
(UTC+00:00)

ACS3 Solar Sail - Pass Details

Date: 11 October 2024
Orbit: 961 x 1022 km, 97.5° (Epoch: 03 November)

Event Time Altitude Azimuth Distance (km) Brightness Sun altitude
Exits shadow 23:19:22 16° 94° (E) 2,433 3.2 -12.1°
Maximum altitude 23:22:17 21° 61° (ENE) 2,125 3.1 -12.6°
Drops below altitude 10° 23:26:52 10° 15° (NNE) 2,838 4.1 -13.5°
Sets 23:29:59 0° 1° (N) 3,793 4.9 -14.0°
